Weather in Berlevag

Norway     70°51′35″N   29°05′26″E
temp.,
°C
wind,
m/s
gust,
m/s
humid.,
%
clouds,
%
prec.,
mm/h
press.,
hPa
HPBL,
m
7 may, fri
fri723:00−2ese6987100 0.0 1011512
02:00−2ese5986100 0.1 1010536
05:00−1e81189100 0.3 1009749
08:00−1e91182100 0.5 10091143
11:00−1e111384100 0.2 10081264
14:000e121575100 0.4 10071355
17:00−1e131685100 0.2 10051278
20:00−1ene141898100 2.6 10031105
8 may, sat
sat823:000e131798100 1.8 1001973
02:00+1e111599100 3.3 999899
05:00+1e11148797 0.8 998949
08:00+1ese81091100 0.9 998724
11:00+1se7108893 0.0 999723
14:00+1sse6108734 0.1 1000722
17:00+1sse7108598 0.0 1001621
20:000sse598832 0.1 1001339
9 may, sun
sun923:00−2s6109216 0.0 1002247
02:00−3s599340 0.0 1003191
05:00−2s589117 0.0 1003192
08:00−1s488915 0.0 1003287
11:00+1ssw46845 0.0 1003401
14:00+2ssw34865 0.0 1004281
17:00+2wsw23805 0.0 1004257
20:00−1w12855 0.0 100565
10 may, mon
mon1023:00−2sw32863 0.0 100552
02:00−2sw44835 0.0 100567
05:00−1sw44815 0.0 1005105
08:00+1sw59775 0.0 1006436
11:00+3wsw10137531 0.0 1007746
14:00+3wsw12158058 0.0 1008823
17:00+3w1013836 0.1 1010703
20:00+2w7108520 0.1 1012506
11 may, tue
tue1123:00+1wnw689082 0.2 1014532
02:00+1wnw577993 0.2 1015515
05:00+1nw347692 0.0 1016441
08:00+1ne117783 0.0 1017260
11:00+1ese347511 0.0 1017460
14:00+2se4577100 0.0 1018374
17:00+2se4579100 0.0 1018272
20:00+1se348099 0.0 1017214